Left ArrowRight Arrow

39.95238, -75.16362

Hourly Observations for October 10, 2016

Temp ( °F °C ) Dew Point ( °F °C ) Humidity (%) Winds ( mph kmh ) Pressure ( in mb ) Visibility ( mi km ) Precip ( " mm )
12:54 am 00:54 Partly Cloudy 54 12.2 38 3.3 55 55 NNW 15 24 30.15 1021 10 16 0.00 0.00
1:54 am 01:54 Mostly Cloudy 53 11.7 37 2.8 55 55 N 14 22 30.16 1021 10 16 0.00 0.00
2:54 am 02:54 Partly Cloudy 52 11.1 36 2.2 55 55 NNW 21 33 30.16 1021 10 16 0.00 0.00
3:54 am 03:54 Clear 51 10.6 35 1.7 54 54 N 17 28 30.18 1022 10 16 0.00 0.00
4:54 am 04:54 Clear 50 10 33 0.6 52 52 NNW 18 30 30.20 1023 10 16 0.00 0.00
5:54 am 05:54 Clear 48 8.9 34 1.1 58 58 NNW 16 26 30.22 1023 10 16 0.00 0.00
6:54 am 06:54 Clear 47 8.3 34 1.1 61 61 NNW 14 22 30.24 1024 10 16 0.00 0.00
7:54 am 07:54 Sunny 48 8.9 33 0.6 56 56 NNW 14 22 30.25 1025 10 16 0.00 0.00
8:54 am 08:54 Sunny 50 10 33 0.6 52 52 NNW 18 30 30.27 1025 10 16 0.00 0.00
9:54 am 09:54 Sunny 53 11.7 32 0 45 45 NNW 15 24 30.29 1026 10 16 0.00 0.00
10:54 am 10:54 Sunny 55 12.8 30 -1.1 38 38 NNW 15 24 30.30 1026 10 16 0.00 0.00
11:54 am 11:54 Sunny 59 15 29 -1.7 32 32 N 21 33 30.29 1026 10 16 0.00 0.00
12:54 pm 12:54 Sunny 62 16.7 28 -2.2 28 28 N 14 22 30.29 1026 10 16 0.00 0.00
1:54 pm 13:54 Sunny 62 16.7 27 -2.8 26 26 NNW 13 20 30.27 1025 10 16 0.00 0.00
2:54 pm 14:54 Sunny 63 17.2 27 -2.8 26 26 NW 16 26 30.27 1025 10 16 0.00 0.00
3:54 pm 15:54 Sunny 65 18.3 27 -2.8 24 24 NNW 15 24 30.27 1025 10 16 0.00 0.00
4:54 pm 16:54 Sunny 64 17.8 28 -2.2 26 26 NNW 13 20 30.27 1025 10 16 0.00 0.00
5:54 pm 17:54 Sunny 63 17.2 29 -1.7 28 28 NNW 12 19 30.28 1025 10 16 0.00 0.00
6:54 pm 18:54 Clear 59 15 32 0 36 36 NNW 7 11 30.30 1026 10 16 0.00 0.00
7:54 pm 19:54 Clear 57 13.9 32 0 39 39 NNW 6 9 30.32 1027 10 16 0.00 0.00
8:54 pm 20:54 Clear 55 12.8 34 1.1 45 45 N 7 11 30.34 1028 10 16 0.00 0.00
9:54 pm 21:54 Clear 53 11.7 35 1.7 51 51 NNW 8 13 30.37 1028 10 16 0.00 0.00
10:54 pm 22:54 Clear 51 10.6 35 1.7 54 54 N 7 11 30.38 1029 10 16 0.00 0.00
11:54 pm 23:54 Clear 50 10 36 2.2 59 59 N 5 7 30.39 1029 10 16 0.00 0.00

Powered by Vaisala Xweather